Weather History for Sisseton, SD

Change the Weather History Date:

Tuesday, March 19, 2013

  Actual Average Record
Temperature  
Mean Temperature 7 °F 31 °F  
Max Temperature 16 °F 41 °F 76 °F (2012)
Min Temperature -2 °F 22 °F -5 °F (1913)
Degree Days  
Heating Degree Days 58 34  
Month to date heating degree days 893 716  
Since 1 July heating degree days 7278 6975  
Cooling Degree Days 0 0  
Month to date cooling degree days 0 0  
Year to date cooling degree days 0 0  
Moisture  
Dew Point 1 °F    
Average Humidity 67    
Maximum Humidity 80    
Minimum Humidity 53    
Precipitation  
Precipitation 0.00 in 0.04 in 0.44 in (1979)
Month to date precipitation 0.92 0.65  
Year to date precipitation 3.30 1.51  
Snow  
Snow 0.00 in - - ()
Month to date snowfall 5.4  
Since 1 July snowfall 42.1  
Snow Depth 15.00 in    
Sea Level Pressure  
Sea Level Pressure 30.29 in    
Wind  
Wind Speed 16 mph (NNW)    
Max Wind Speed 28 mph    
Max Gust Speed 31 mph    
T = Trace of Precipitation, MM = Missing Value Source: NWS Daily Summary

Daily Weather History Graph

Daily Weather History Graph

Search for Another Location

Airport:

Trip Planner

Search our weather history database for the weather conditions in past years. The results will help you decide how hot, cold, wet, or windy it might be!

Date:

Astronomy

Mar. 19, 2013 Rise Set
Actual Time 7:32 AM CDT 7:39 PM CDT
Civil Twilight 7:02 AM CDT 8:09 PM CDT
Nautical Twilight 6:28 AM CDT 8:44 PM CDT
Astronomical Twilight 5:52 AM CDT 9:19 PM CDT
Moon 12:07 PM CDT 2:44 AM CDT
Length of Visible Light 13h 06m
Length of Day
12h 07m
Waxing Crescent, 50% of the Moon is Illuminated
Mar 19
Waxing Crescent
Mar 19
First Quarter
Mar 27
Full
Apr 2
Last Quarter
Apr 10
New

Hourly Weather History & Observations

Time (CDT) Temp. Windchill Dew Point Humidity Pressure Visibility Wind Dir Wind Speed Gust Speed Precip Events Conditions
12:56 AM 7.0 °F -12.1 °F -0.9 °F 70% 30.12 in - NNW 18.4 mph - N/A   Unknown
1:56 AM 6.1 °F -12.2 °F -2.0 °F 69% 30.12 in - NNW 16.1 mph - N/A   Unknown
2:56 AM 5.0 °F -12.3 °F -2.9 °F 70% 30.14 in - NW 13.8 mph - N/A   Unknown
3:56 AM 3.0 °F -13.3 °F -4.0 °F 73% 30.14 in - NNW 11.5 mph - N/A   Unknown
4:56 AM 3.0 °F -14.1 °F -5.1 °F 69% 30.15 in - NNW 12.7 mph - N/A   Unknown
5:56 AM 3.0 °F -14.8 °F -5.1 °F 69% 30.19 in - NNW 13.8 mph - N/A   Unknown
6:56 AM 1.9 °F -11.8 °F -5.1 °F 72% 30.20 in - NW 8.1 mph - N/A   Unknown
7:56 AM 1.0 °F -14.0 °F -6.0 °F 72% 30.22 in - NW 9.2 mph - N/A   Unknown
8:56 AM 3.0 °F -11.5 °F -4.0 °F 73% 30.26 in - NNW 9.2 mph - N/A   Unknown
9:56 AM 5.0 °F -8.1 °F -2.0 °F 73% 30.28 in - NNW 8.1 mph - N/A   Unknown
10:56 AM 10.0 °F -4.5 °F -0.9 °F 61% 30.27 in - NNW 11.5 mph - N/A   Unknown
11:56 AM 12.9 °F -0.9 °F 1.9 °F 62% 30.28 in - North 11.5 mph - N/A   Unknown
12:56 PM 15.1 °F -0.6 °F 1.9 °F 56% 30.30 in - North 16.1 mph - N/A   Unknown
1:56 PM 15.1 °F -2.5 °F 3.9 °F 61% 30.32 in - NNW 20.7 mph - N/A   Unknown
2:56 PM 16.0 °F -1.3 °F 6.1 °F 65% 30.32 in - North 20.7 mph - N/A   Unknown
3:56 PM 16.0 °F -1.3 °F 6.1 °F 65% 30.35 in - North 20.7 mph - N/A   Unknown
4:56 PM 15.1 °F -1.6 °F 8.1 °F 74% 30.37 in - North 18.4 mph - N/A   Unknown
5:56 PM 15.1 °F -3.3 °F 7.0 °F 70% 30.39 in - NNW 23.0 mph - N/A   Unknown
6:56 PM 12.9 °F -5.7 °F 6.1 °F 74% 30.41 in - NNW 21.9 mph - N/A   Unknown
7:56 PM 12.0 °F -6.9 °F 6.1 °F 77% 30.42 in - NNW 21.9 mph - N/A   Unknown
8:56 PM 9.0 °F -10.0 °F 3.9 °F 80% 30.44 in - NNW 19.6 mph - N/A   Unknown
9:56 PM 9.0 °F -10.5 °F 3.0 °F 77% 30.44 in - NNW 20.7 mph - N/A   Unknown
10:56 PM 8.1 °F -11.7 °F 1.9 °F 76% 30.45 in - NNW 20.7 mph - N/A   Unknown
11:56 PM 7.0 °F -13.1 °F 1.0 °F 77% 30.45 in - NNW 20.7 mph - N/A   Unknown